Regional Weather Roundup
Issued by NWS

Home | Current Version | Previous Version | Text Only | Print | Product List | Glossary Off
Versions: 1 2 3 4 5 6 7 8 9 10 11 12 13 14 15 16 17 18 19 20 21 22 23 24 25 26 27 28 29 30 31 32 33 34 35 36 37 38 39 40 41 42 43 44 45 46 47 48 49 50

000
ASUS43 KLOT 051621
RWRIL

ILLINOIS REGIONAL WEATHER ROUNDUP
NATIONAL WEATHER SERVICE CHICAGO/ROMEOVILLE IL
1100 AM CDT TUE MAY 05 2015

NOTE: "FAIR" INDICATES FEW OR NO CLOUDS BELOW 12,000 FEET WITH NO
SIGNIFICANT WEATHER AND/OR OBSTRUCTIONS TO VISIBILITY.

* THESE STATIONS ARE NOT UNDER NWS QUALITY CONTROL. THEY ALSO MAY NOT
  REPORT WEATHER SUCH AS PRECIPITATION OR FOG.

ILZ001-002-007-009-015-016-024-051700-
NORTHWEST ILLINOIS

CITY           SKY/WX    TMP DP  RH WIND       PRES   REMARKS
MOLINE         CLOUDY    66  61  84 NE9       30.17S HAZE
STERLING*      CLOUDY    61  55  82 E13       30.20F
$$

ILZ003-004-008-010-011-017-018-051700-
NORTH CENTRAL ILLINOIS

CITY           SKY/WX    TMP DP  RH WIND       PRES   REMARKS
ROCKFORD       CLOUDY    55  51  86 NE9       30.26R
FREEPORT*      CLOUDY    52  50  94 E10       30.25R
ROCHELLE*      CLOUDY    57  56  94 E8        30.23R FOG
DE KALB*       CLOUDY    55  53  95 E10       30.24R FOG
PERU*          CLOUDY    60  60  97 E6        30.20S FOG
$$

ILZ005-006-012>014-019>023-051700-
NORTHEAST ILLINOIS

CITY           SKY/WX    TMP DP  RH WIND       PRES   REMARKS
CHICAGO-OHARE  FOG       51  50  96 NE7       30.24R VSB 1/2
CHICAGO-MIDWAY CLOUDY    55  53  93 NE7       30.23R FOG
AURORA         CLOUDY    58  54  86 E12       30.22S FOG
LANSING*       RAIN      52  50  93 SE3       30.22R
JOLIET*        CLOUDY    58  57  96 NE6       30.22S FOG
WAUKEGAN       LGT RAIN  47  46  97 N9        30.26R
DUPAGE AIRPORT FOG       54  52  93 E10       30.23R VSB 1
KANKAKEE*      CLOUDY    69  63  80 CALM      30.21R
WHEELING       CLOUDY    49  47  93 NE5       30.27R FOG
MORRIS*        CLOUDY    60  58  92 E6        30.19R FOG
ROMEOVILLE*    CLOUDY    56  55  96 NE7       30.22S FOG
NORTHERLY ISL    N/A     48  47  96 N3          N/A
$$

LMZ740>746-051700-
SOUTHERN LAKE MICHIGAN

STATION/POSITION SKY/WX   TEMP    WIND        PRES    VSBY  WAVE
                          AIR SEA DIR/SP/G                  HT/PER
                          (F)     (DEG/KT/KT) (MB)    (MI)  (FT/S)
HARRISON CRIB              46     330/  3/  4   N/A
BURNHAM HARBOR             49     350/  3/  6   N/A
CALUMET HARBOR             49     340/  6/  8   N/A
BURNS HARBOR               54     180/  6/ 14 1023.7R
MICHIGAN CITY              58     180/  5/  7   N/A
MICHIGAN CITY 6N           53 49  160/  6/ 12   N/A           1/ 3
ST. JOSEPH                 54 49  130/  8/  8   N/A           1/ 3
$$

ILZ025>027-034>036-040-047-049-050-058-095>099-051700-
WEST-CENTRAL ILLINOIS

CITY           SKY/WX    TMP DP  RH WIND       PRES   REMARKS
QUINCY         SUNNY     74  60  61 SW8       30.16S
GALESBURG*     CLOUDY    68  64  85 SE7       30.16F FOG
MACOMB*        MOSUNNY   72  64  76 S5        30.18F
JACKSONVILLE*  MOSUNNY   83  57  41 SW13      30.16F HX  82
PITTSFIELD*    MOSUNNY   80  58  46 S10G16    30.17S HX  80
$$

ILZ028>032-037-038-041>044-048-051>054-059>061-051700-
CENTRAL ILLINOIS

CITY           SKY/WX    TMP DP  RH WIND       PRES   REMARKS
PONTIAC        CLOUDY    69  65  87 E3        30.20R
BLOOMINGTON    MOSUNNY   74  62  66 SW13      30.19R
DECATUR        MOSUNNY   79  58  48 SW14      30.19S HX  80
PEORIA         PTSUNNY   74  63  68 VRB3      30.17S
LACON*         MOSUNNY   69  63  80 SE6       30.17F
LINCOLN*       SUNNY     79  61  53 SW7       30.15S HX  80
SPRINGFIELD    MOSUNNY   81  58  45 SW13G20   30.17S HX  81
TAYLORVILLE    MOSUNNY   81  55  41 W14G21    30.19S HX  80
$$

ILZ033-039-045-046-055>057-062-063-051700-
EAST-CENTRAL ILLINOIS

CITY           SKY/WX    TMP DP  RH WIND       PRES   REMARKS
CHAMPAIGN      MOSUNNY   81  55  40 SW16      30.19S HX  81
DANVILLE*      MOSUNNY   74  60  60 SW7       30.18S
RANTOUL*       SUNNY     78  63  60 SW15G21   30.19S
MATTOON        MOSUNNY   78  54  43 SW12G22   30.20S
PARIS*         MOSUNNY   82  53  36 SW15G24   30.21F HX  81
$$

ILZ079-100>102-051700-
SOUTHWEST ILLINOIS

CITY           SKY/WX    TMP DP  RH WIND       PRES   REMARKS
ALTON          MOSUNNY   79  59  50 S12       30.20S HX  80
BELLEVILLE     SUNNY     81  58  46 VRB5      30.19S HX  81
CAHOKIA*       MOSUNNY   81  57  43 VRB6      30.19F HX  81
SPARTA*        PTSUNNY   77  57  49 SW7       30.23S
$$

ILZ064>066-069>071-074>076-080>082-084>086-088>090-092>094-051700-
SOUTH-CENTRAL ILLINOIS

CITY           SKY/WX    TMP DP  RH WIND       PRES   REMARKS
CARBONDALE     SUNNY     80  58  46 SW9       30.23S HX  80
CAIRO*         SUNNY     80  58  47 SW8       30.23S HX  80
EFFINGHAM*     MOSUNNY   80  48  32 SW9       30.23S
MARION         MOSUNNY   79  59  50 S9        30.25R HX  80
MT. VERNON     MOSUNNY  N/A N/A N/A S12G17    30.24S
CENTRALIA*     SUNNY     84  52  32 SW14      30.22S HX  83
SALEM*         MOSUNNY   77  56  48 SE7       30.23S
METROPOLIS*    SUNNY     80  58  46 S6        30.24S HX  81
$$

ILZ067-068-072-073-078-083-087-091-051700-
SOUTHEAST ILLINOIS

CITY           SKY/WX    TMP DP  RH WIND       PRES   REMARKS
LAWRENCEVILLE  SUNNY     82  52  35 SW16      30.24R HX  81
FLORA*         SUNNY     80  53  39 SW14      30.23S HX  80
FAIRFIELD*     MOSUNNY   79  56  45 SW10      30.22S HX  80
HARRISBURG*    SUNNY     80  54  41 W7        30.25S HX  80
ROBINSON*      SUNNY     82  49  32 SW15      30.24R HX  80
CARMI*         MOSUNNY   80  49  34 SW12G18   30.24S
$$

ABBREVIATIONS USED IN REMARKS
   TC - TEMPERATURE IN CELSIUS
  WCI - WIND CHILL INDEX
   HX - HEAT INDEX
  VSB - VISIBILITY
$$




USA.gov is the U.S. government's official web portal to all federal, state and local government web resources and services.